�N����,����,�~����,�C��,���x,�C��,����,���ϕ���,�ő�u�ԕ���,�ő厞����,���˗�,�I�_���x,�n�����x,�ő啗���N��,DTYPE
"20/09/29","00:10",0.0,17.1,89.6,1008.6,331.0,1.8,3.2,332.0,0.00,15.4,21.0,"00:05:12",1
"20/09/29","00:20",0.0,17.0,89.7,1008.6,330.1,1.8,3.1,316.2,0.00,15.3,21.0,"00:18:08",1
"20/09/29","00:30",0.0,17.0,89.8,1008.3,319.8,2.0,3.2,330.6,0.00,15.4,20.8,"00:25:04",1
"20/09/29","00:40",0.0,17.0,89.7,1008.3,322.3,1.2,4.0,324.1,0.00,15.3,20.8,"00:30:08",1
"20/09/29","00:50",0.0,16.8,89.8,1008.3,318.0,1.5,2.2,327.8,0.00,15.2,20.8,"00:40:56",1
"20/09/29","01:00",0.0,16.7,90.1,1008.1,328.6,1.6,3.9,333.6,0.00,15.1,21.0,"00:59:44",1
"20/09/29","01:10",0.0,17.0,90.0,1007.8,325.6,2.8,4.9,335.8,0.00,15.4,20.9,"01:01:52",1
"20/09/29","01:20",0.0,17.0,89.9,1007.8,331.1,3.0,4.9,343.6,0.00,15.4,20.7,"01:11:12",1
"20/09/29","01:30",0.0,16.9,89.8,1008.1,329.9,2.7,4.0,325.1,0.00,15.3,20.7,"01:25:36",1
"20/09/29","01:40",0.0,16.9,89.9,1008.1,329.2,2.6,4.5,326.0,0.00,15.3,20.6,"01:39:12",1
"20/09/29","01:50",0.0,16.9,89.8,1007.8,333.0,1.8,3.1,325.9,0.00,15.3,20.6,"01:44:24",1
"20/09/29","02:00",0.0,16.9,89.9,1007.4,330.1,2.6,4.7,312.4,0.00,15.3,20.6,"01:56:32",1
"20/09/29","02:10",0.0,16.9,89.9,1007.6,333.4,3.0,5.5,335.7,0.00,15.3,20.5,"02:03:12",1
"20/09/29","02:20",0.0,16.8,89.9,1007.6,327.5,2.5,4.2,338.2,0.00,15.2,20.5,"02:14:08",1
"20/09/29","02:30",0.0,16.8,90.0,1007.1,325.5,2.8,5.0,330.7,0.00,15.2,20.6,"02:27:36",1
"20/09/29","02:40",0.0,16.8,90.0,1007.8,327.6,3.0,5.1,337.3,0.00,15.2,20.6,"02:31:36",1
"20/09/29","02:50",0.0,16.7,90.0,1007.4,331.9,2.5,4.1,348.5,0.00,15.1,20.6,"02:46:48",1
"20/09/29","03:00",0.0,16.6,90.1,1007.1,333.1,2.3,4.4,346.6,0.00,15.0,20.3,"02:59:28",1
"20/09/29","03:10",0.0,16.7,90.2,1007.6,320.4,2.7,4.1,335.2,0.00,15.1,20.4,"03:02:00",1
"20/09/29","03:20",0.0,16.7,90.2,1007.4,323.7,3.1,4.5,348.7,0.00,15.1,20.4,"03:18:32",1
"20/09/29","03:30",0.0,16.7,90.1,1006.9,328.7,3.1,4.8,326.2,0.00,15.1,20.3,"03:21:20",1
"20/09/29","03:40",0.0,16.8,90.1,1006.9,326.3,3.1,4.9,325.8,0.00,15.2,20.4,"03:38:32",1
"20/09/29","03:50",0.0,16.7,90.0,1006.7,329.2,3.4,5.5,336.7,0.00,15.1,20.4,"03:49:20",1
"20/09/29","04:00",0.0,16.7,90.0,1006.9,332.7,2.8,5.1,339.9,0.00,15.1,20.3,"03:50:24",1
"20/09/29","04:10",0.0,16.8,90.0,1007.1,331.1,2.3,4.0,338.3,0.00,15.2,20.2,"04:00:48",1
"20/09/29","04:20",0.0,16.8,90.0,1006.7,329.6,2.0,3.3,325.4,0.00,15.2,20.2,"04:19:28",1
"20/09/29","04:30",0.0,16.7,90.0,1007.1,335.9,2.0,3.6,338.7,0.00,15.1,20.3,"04:23:20",1
"20/09/29","04:40",0.0,16.6,90.1,1006.9,328.2,2.2,4.4,338.2,0.00,15.0,20.3,"04:30:02",1
"20/09/29","04:50",0.0,16.6,90.1,1006.9,322.7,2.2,4.1,328.4,0.00,15.0,20.4,"04:45:04",1
"20/09/29","05:00",0.0,16.5,90.2,1007.4,325.1,1.8,2.8,337.4,0.00,14.9,20.2,"04:54:56",1
"20/09/29","05:10",0.0,16.4,90.3,1007.1,326.8,1.8,3.5,350.2,0.00,14.8,20.2,"05:04:24",1
"20/09/29","05:20",0.0,16.5,90.5,1007.4,328.6,1.7,2.8,339.0,0.00,15.0,20.2,"05:15:52",1
"20/09/29","05:30",0.0,16.5,90.5,1007.4,327.6,2.6,5.7,348.0,0.00,15.0,20.2,"05:29:52",1
"20/09/29","05:40",0.0,16.5,90.5,1006.9,331.0,2.8,4.9,339.0,0.00,15.0,20.2,"05:39:20",1
"20/09/29","05:50",0.0,16.4,90.6,1007.1,327.5,2.3,3.7,332.5,0.00,14.9,20.2,"05:41:04",1
"20/09/29","06:00",0.0,16.4,90.7,1007.4,327.6,2.5,4.4,343.9,0.00,14.9,20.1,"05:52:00",1
"20/09/29","06:10",0.0,16.5,90.8,1007.4,331.1,2.3,3.6,342.7,0.00,15.0,20.1,"06:00:40",1
"20/09/29","06:20",0.0,16.7,90.9,1007.4,325.0,1.7,3.4,323.5,0.00,15.2,20.1,"06:17:44",1
"20/09/29","06:30",0.0,16.9,90.9,1007.6,325.2,1.7,3.2,341.9,0.00,15.4,20.1,"06:24:16",1
"20/09/29","06:40",0.0,17.1,90.8,1007.6,323.4,1.6,2.7,332.1,0.01,15.6,20.1,"06:30:56",1
"20/09/29","06:50",0.0,17.4,90.6,1007.1,328.9,2.1,3.5,336.6,0.03,15.9,20.1,"06:46:48",1
"20/09/29","07:00",0.0,17.7,90.0,1007.4,331.5,1.6,3.1,345.1,0.04,16.1,20.1,"06:56:40",1
"20/09/29","07:10",0.0,18.1,89.4,1007.4,324.1,1.8,4.0,343.6,0.04,16.4,20.3,"07:08:08",1
"20/09/29","07:20",0.0,18.3,88.4,1007.6,319.3,1.8,3.4,340.5,0.05,16.4,20.4,"07:17:52",1
"20/09/29","07:30",0.0,18.8,87.5,1007.1,310.9,1.2,2.4,339.0,0.08,16.7,20.4,"07:27:04",1
"20/09/29","07:40",0.0,19.0,86.3,1007.1,299.2,1.2,2.4,333.9,0.07,16.7,20.4,"07:32:40",1
"20/09/29","07:50",0.0,19.0,85.5,1007.1,328.7,1.8,3.4,342.9,0.09,16.6,20.7,"07:43:36",1
"20/09/29","08:00",0.0,19.3,85.0,1006.9,321.5,1.8,3.9,339.5,0.10,16.8,20.5,"07:56:56",1
"20/09/29","08:10",0.0,19.5,84.3,1006.9,327.4,2.0,3.3,334.5,0.10,16.8,20.7,"08:07:28",1
"20/09/29","08:20",0.0,19.7,83.6,1006.9,310.5,1.3,3.4,335.4,0.10,16.9,20.8,"08:17:20",1
"20/09/29","08:30",0.0,19.8,82.9,1006.9,323.7,1.5,2.8,326.9,0.07,16.9,20.7,"08:25:44",1
"20/09/29","08:40",0.0,19.7,82.3,1006.9,306.6,1.3,2.8,339.6,0.04,16.6,20.8,"08:34:00",1
"20/09/29","08:50",0.0,19.7,82.2,1007.1,327.6,2.0,3.3,330.8,0.07,16.6,20.9,"08:45:20",1
"20/09/29","09:00",0.0,19.6,82.2,1006.9,326.1,2.2,4.1,344.6,0.06,16.5,21.0,"08:56:40",1
"20/09/29","09:10",0.0,19.7,82.4,1006.7,330.1,2.2,3.9,338.7,0.06,16.7,20.9,"09:04:16",1
"20/09/29","09:20",0.0,20.0,82.6,1006.9,313.9,1.7,3.1,332.0,0.10,17.0,21.1,"09:14:48",1
"20/09/29","09:30",0.0,20.4,82.3,1006.9,299.4,1.1,2.1,323.4,0.12,17.3,21.1,"09:29:44",1
"20/09/29","09:40",0.0,20.6,81.8,1006.4,315.1,1.6,2.9,338.7,0.12,17.4,21.2,"09:37:28",1
"20/09/29","09:50",0.0,21.4,81.4,1006.4,292.6,0.8,2.5,330.1,0.19,18.1,21.3,"09:40:16",1
"20/09/29","10:00",0.0,23.0,80.5,1006.0,271.0,0.7,1.6,253.8,0.39,19.5,21.7,"09:55:44",1
"20/09/29","10:10",0.0,24.3,75.0,1006.0,243.4,0.7,1.6,236.7,0.45,19.6,21.7,"10:00:02",1
"20/09/29","10:20",0.0,24.9,69.8,1005.5,186.9,1.1,2.8,198.6,0.45,19.0,22.0,"10:12:32",1
"20/09/29","10:30",0.0,25.0,67.9,1005.2,103.4,1.1,2.7,64.6,0.43,18.7,22.4,"10:24:32",1
"20/09/29","10:40",0.0,24.7,66.5,1005.0,124.7,1.3,3.6,141.7,0.35,18.1,22.6,"10:32:16",1
"20/09/29","10:50",0.0,24.5,68.1,1004.5,123.7,1.2,3.1,118.3,0.30,18.3,22.8,"10:41:36",1
"20/09/29","11:00",0.0,24.2,67.8,1004.3,115.1,1.3,2.6,180.1,0.27,17.9,22.9,"10:51:36",1
"20/09/29","11:10",0.0,24.3,67.8,1003.8,89.2,1.2,2.6,48.4,0.25,18.0,23.0,"11:00:08",1
"20/09/29","11:20",0.0,25.1,68.3,1003.8,126.2,1.1,3.2,101.3,0.40,18.9,23.2,"11:16:24",1
"20/09/29","11:30",0.0,25.2,66.1,1003.6,133.4,1.3,4.3,107.7,0.37,18.5,23.4,"11:27:36",1
"20/09/29","11:40",0.0,25.4,66.2,1003.1,118.6,0.6,2.4,187.3,0.34,18.7,23.4,"11:30:08",1
"20/09/29","11:50",0.0,25.4,64.9,1003.1,83.6,1.1,2.5,43.9,0.28,18.4,23.4,"11:45:04",1
"20/09/29","12:00",0.0,24.9,65.2,1002.9,89.8,1.2,2.9,103.3,0.23,18.0,23.7,"11:51:44",1
"20/09/29","12:10",0.0,24.6,66.6,1003.4,54.0,1.0,2.2,63.5,0.17,18.0,23.7,"12:06:24",1
"20/09/29","12:20",0.0,24.9,66.2,1003.1,33.0,0.8,1.8,84.3,0.22,18.2,23.7,"12:12:16",1
"20/09/29","12:30",0.0,25.0,66.2,1002.9,0.3,1.0,2.4,341.3,0.19,18.3,23.9,"12:21:20",1
"20/09/29","12:40",0.0,25.3,65.6,1002.9,16.5,1.0,2.1,71.2,0.34,18.4,24.1,"12:34:16",1
"20/09/29","12:50",0.0,25.7,64.9,1001.9,123.2,1.3,2.7,105.3,0.42,18.6,24.0,"12:43:36",1
"20/09/29","13:00",0.0,26.2,62.3,1001.9,82.0,0.8,2.7,123.7,0.46,18.5,24.2,"12:54:00",1
"20/09/29","13:10",0.0,27.0,60.2,1002.2,196.4,1.0,2.5,150.5,0.53,18.7,24.3,"13:07:36",1
"20/09/29","13:20",0.0,27.3,61.9,1002.4,138.6,1.1,2.5,115.6,0.51,19.4,24.7,"13:16:56",1
"20/09/29","13:30",0.0,27.1,59.3,1002.9,185.7,1.3,3.2,201.9,0.48,18.5,25.0,"13:23:12",1
"20/09/29","13:40",0.0,26.3,59.1,1002.2,179.8,0.7,1.8,139.2,0.19,17.7,25.0,"13:30:48",1
"20/09/29","13:50",0.0,27.2,58.6,1002.4,224.0,1.1,2.4,221.1,0.48,18.4,25.2,"13:46:08",1
"20/09/29","14:00",0.0,27.8,56.3,1002.6,79.5,0.8,2.5,112.9,0.47,18.3,25.4,"13:58:40",1
"20/09/29","14:10",0.0,27.1,57.2,1001.9,27.1,1.1,2.5,83.1,0.20,17.9,25.3,"14:05:28",1
"20/09/29","14:20",0.0,26.3,59.5,1001.5,40.9,1.0,2.7,84.9,0.12,17.8,25.3,"14:15:12",1
"20/09/29","14:30",0.0,25.7,61.2,1000.8,12.4,1.0,2.8,354.9,0.12,17.7,25.3,"14:27:04",1
"20/09/29","14:40",0.0,26.4,61.6,1000.5,26.9,0.7,1.8,109.2,0.23,18.5,25.2,"14:38:40",1
"20/09/29","14:50",0.0,26.7,59.2,1000.8,82.6,0.7,2.0,119.5,0.24,18.1,25.1,"14:43:12",1
"20/09/29","15:00",0.0,27.3,57.2,1001.0,211.1,0.3,1.4,356.3,0.26,18.1,25.2,"14:59:52",1
"20/09/29","15:10",0.0,27.0,56.6,1001.0,313.9,0.6,1.7,351.9,0.16,17.7,25.3,"15:02:56",1
"20/09/29","15:20",0.0,26.8,58.1,1001.0,308.4,0.5,2.1,345.3,0.16,17.9,25.3,"15:13:52",1
"20/09/29","15:30",0.0,26.9,55.7,1000.8,8.5,0.3,1.4,61.7,0.16,17.3,25.2,"15:25:28",1
"20/09/29","15:40",0.0,26.8,56.3,1000.3,72.7,0.7,1.8,347.0,0.14,17.4,25.1,"15:36:48",1
"20/09/29","15:50",0.0,26.2,58.9,1000.5,65.8,1.2,3.4,117.1,0.11,17.6,25.1,"15:47:44",1
"20/09/29","16:00",0.0,25.8,61.2,1000.3,83.8,1.0,1.9,75.5,0.10,17.8,25.1,"15:52:32",1
"20/09/29","16:10",0.0,25.3,62.4,1000.8,105.6,0.8,2.7,121.1,0.08,17.6,24.9,"16:04:24",1
"20/09/29","16:20",0.0,25.3,63.5,1001.0,107.1,0.7,1.9,94.8,0.07,17.9,25.1,"16:18:32",1
"20/09/29","16:30",0.0,25.1,63.6,1001.0,115.4,1.0,1.9,95.4,0.07,17.8,24.9,"16:29:20",1
"20/09/29","16:40",0.0,25.0,64.1,1001.0,107.9,0.7,2.0,164.3,0.06,17.8,24.9,"16:34:32",1
"20/09/29","16:50",0.0,25.1,64.6,1001.0,28.8,1.0,2.5,9.0,0.05,18.0,24.7,"16:44:24",1
"20/09/29","17:00",0.0,24.8,65.4,1001.2,12.3,1.1,2.4,21.0,0.03,17.9,24.8,"16:56:08",1
"20/09/29","17:10",0.0,24.5,66.4,1001.0,0.4,0.8,2.1,350.9,0.02,17.9,24.7,"17:01:04",1
"20/09/29","17:20",0.0,24.4,67.3,1001.2,6.6,0.8,1.9,351.0,0.01,18.0,24.5,"17:10:08",1
"20/09/29","17:30",0.0,24.0,67.8,1001.5,8.9,0.7,2.0,5.8,0.00,17.7,24.4,"17:25:44",1
"20/09/29","17:40",0.0,23.8,68.3,1001.5,347.1,0.8,2.6,350.8,0.00,17.7,24.4,"17:35:20",1
"20/09/29","17:50",0.0,23.7,69.0,1001.5,1.3,0.8,2.2,318.6,0.00,17.7,24.2,"17:41:52",1
"20/09/29","18:00",0.0,23.2,69.7,1001.5,317.5,0.8,2.1,326.2,0.00,17.4,24.1,"17:55:20",1
"20/09/29","18:10",0.0,23.0,71.4,1001.7,310.2,1.1,1.9,319.2,0.00,17.6,24.1,"18:02:08",1
"20/09/29","18:20",0.0,22.6,73.3,1001.7,291.1,0.7,1.4,273.7,0.00,17.6,24.2,"18:19:12",1
"20/09/29","18:30",0.0,22.3,75.9,1001.7,262.7,0.5,1.2,260.2,0.00,17.9,24.0,"18:20:40",1
"20/09/29","18:40",0.0,21.8,77.0,1001.7,292.3,0.6,1.3,308.6,0.00,17.6,23.9,"18:37:36",1
"20/09/29","18:50",0.0,21.6,78.9,1001.7,273.5,0.5,1.1,246.2,0.00,17.8,23.4,"18:49:36",1
"20/09/29","19:00",0.0,21.2,79.9,1001.9,294.9,1.1,1.6,302.0,0.00,17.6,23.8,"18:58:48",1
"20/09/29","19:10",0.0,20.9,80.8,1001.9,307.3,1.2,1.9,317.9,0.00,17.5,23.5,"19:08:32",1
"20/09/29","19:20",0.0,20.9,81.3,1001.7,306.0,1.6,2.5,327.8,0.00,17.6,23.6,"19:11:44",1
"20/09/29","19:30",0.0,20.8,81.6,1002.2,298.0,1.2,2.1,282.3,0.00,17.6,23.4,"19:22:24",1
"20/09/29","19:40",0.0,20.6,81.9,1002.2,279.6,1.0,2.2,289.5,0.00,17.4,23.2,"19:31:04",1
"20/09/29","19:50",0.0,20.5,82.3,1002.2,282.2,1.0,1.4,319.5,0.00,17.4,23.3,"19:43:20",1
"20/09/29","20:00",0.0,20.6,82.7,1002.4,299.5,1.1,2.2,328.7,0.00,17.6,23.2,"19:56:48",1
"20/09/29","20:10",0.0,20.5,83.0,1002.4,290.7,1.1,2.0,318.1,0.00,17.6,23.0,"20:07:52",1
"20/09/29","20:20",0.0,20.5,83.2,1002.6,315.0,1.5,2.5,317.9,0.00,17.6,23.0,"20:14:24",1
"20/09/29","20:30",0.0,20.6,83.1,1002.4,329.1,1.6,3.3,346.3,0.00,17.7,23.0,"20:23:28",1
"20/09/29","20:40",0.0,20.6,82.9,1002.6,312.0,1.2,2.2,329.2,0.00,17.6,22.9,"20:35:44",1
"20/09/29","20:50",0.0,20.3,82.8,1002.4,290.6,0.8,1.6,291.8,0.00,17.3,22.8,"20:40:08",1
"20/09/29","21:00",0.0,20.0,83.1,1002.6,298.6,1.0,1.4,308.4,0.00,17.1,22.7,"20:56:56",1
"20/09/29","21:10",0.0,19.8,83.5,1003.1,306.3,1.0,1.4,318.9,0.00,17.0,22.6,"21:09:04",1
"20/09/29","21:20",0.0,19.5,84.3,1003.1,313.4,1.2,1.7,333.9,0.00,16.8,22.6,"21:15:20",1
"20/09/29","21:30",0.0,19.3,84.9,1003.1,297.1,0.8,1.6,319.7,0.00,16.7,22.5,"21:20:16",1
"20/09/29","21:40",0.0,19.1,85.6,1003.1,277.8,1.0,1.4,269.1,0.00,16.7,22.4,"21:39:04",1
"20/09/29","21:50",0.0,19.0,86.3,1003.1,273.8,1.1,1.7,315.6,0.00,16.7,22.3,"21:46:32",1
"20/09/29","22:00",0.0,18.8,86.7,1003.4,302.6,1.0,1.4,311.7,0.00,16.6,22.4,"21:57:04",1
"20/09/29","22:10",0.0,18.7,87.2,1003.1,295.3,1.0,2.4,321.6,0.00,16.6,22.3,"22:06:56",1
"20/09/29","22:20",0.0,18.7,87.7,1003.4,298.2,1.1,2.0,320.1,0.00,16.7,22.2,"22:14:40",1
"20/09/29","22:30",0.0,18.6,88.0,1003.4,307.9,1.1,2.1,317.4,0.00,16.6,22.3,"22:21:20",1
"20/09/29","22:40",0.0,18.5,88.2,1003.4,288.5,0.8,1.4,309.9,0.00,16.6,21.9,"22:33:44",1
"20/09/29","22:50",0.0,18.2,88.5,1003.4,283.7,0.8,1.3,266.1,0.00,16.3,22.0,"22:46:40",1
"20/09/29","23:00",0.0,18.1,88.9,1003.6,294.3,1.1,1.9,317.9,0.00,16.3,21.6,"22:57:12",1
"20/09/29","23:10",0.0,18.1,89.1,1003.6,279.2,1.1,1.7,328.3,0.00,16.3,21.8,"23:02:16",1
"20/09/29","23:20",0.0,18.1,89.4,1003.8,311.5,1.3,3.1,325.8,0.00,16.4,21.7,"23:12:16",1
"20/09/29","23:30",0.0,18.1,89.6,1003.6,303.2,1.6,2.7,317.7,0.00,16.4,21.8,"23:29:20",1
"20/09/29","23:40",0.0,18.1,89.8,1003.8,301.4,1.5,2.7,340.8,0.00,16.4,21.6,"23:34:40",1
"20/09/29","23:50",0.0,18.1,89.8,1003.4,301.2,1.3,2.7,319.7,0.00,16.4,21.7,"23:42:40",1
"20/09/29","24:00",0.0,18.0,90.0,1003.8,300.0,1.2,2.7,327.6,0.00,16.4,21.7,"23:57:28",1
